Location: Newark
(34.0131°N, 4.3314°W)
Time: 04:32:01
(UTC+00:00)

Explorer 11/Cluster Stage 4 - Pass Details

Date: 26 October 2019
Orbit: 467 x 1259 km, 28.8° (Epoch: 17 November)

Event Time Altitude Azimuth Distance (km) Brightness Sun altitude
Rises 07:32:09 0° 249° (WSW) 2,884 9.1 11.1°
Reaches altitude 10° 07:34:48 10° 240° (WSW) 1,865 8.2 11.6°
Maximum altitude 07:38:38 35° 175° (S) 847 7.3 12.3°
Drops below altitude 10° 07:42:03 10° 108° (ESE) 1,647 11.0 13.0°
Sets 07:44:15 0° 98° (E) 2,494 10.7 13.4°
